Flag for Thailand Weather past 2 weeks in Khon Kaen, Thailand

Now
77 °F

Clear.


Feels Like: 79 °F
Forecast: 78 / 100 °F
Wind: 2 mph from North

Location: Khon Kaen Airport

Current Time: Mar 2, 2015 at 8:50:11 AM

Latest Report: Mar 2, 2015 at 8:00 AM


Visibility: 5 mi

Pressure: 29.95 "Hg

Humidity: 69%

Dew point: 66 °F

Location of Khon KaenLocation

Historic Weather in Khon Kaen — Graph

°F

Khon Kaen temperature yesterday

Maximum temperature yesterday: 99 °F (at 1:00 PM)
Minimum temperature yesterday: 75 °F (at 6:00 AM)
Average temperature yesterday: 88 °F

Past Weeks' High & Low Weather Summary

 TemperatureHumidityPressure
High99 °F (Feb 28, 2:00 PM)94% (Feb 15, 7:00 AM)30.04 "Hg (Feb 15, 7:00 AM)
Low66 °F (Feb 15, 7:00 AM)25% (Feb 27, 4:00 PM)29.74 "Hg (Feb 24, 4:00 PM)
Average81 °F63%29.87 "Hg
* Reported Feb 15 7:00 AM — Mar 2 7:00 AM, Khon Kaen, Weather by CustomWeather, © 2015

Note: Actual official high and low records may vary slightly from our data, if they occured in-between our weather recording intervals... More about our weather records

Advertising

Khon Kaen weather history for previous 24 hours

 ConditionsComfort  
Time TempWeatherWind HumidityBarometerVisibility
7:00 AM
Mon, Mar 2
72 °FClear.1 mph83%29.92 "Hg4 mi
6:00 AM73 °FClear.1 mph78%29.89 "Hg6 mi
5:00 AM73 °FClear.2 mph74%29.89 "Hg5 mi
4:00 AM73 °FClear.1 mph78%29.89 "Hg5 mi
2:00 AM79 °FClear.3 mph61%29.89 "Hg6 mi
1:00 AM81 °FClear.3 mph58%29.89 "Hg5 mi
12:00 AM82 °FClear.5 mph58%29.89 "Hg5 mi
11:00 PM
Sun, Mar 1
84 °FClear.6 mph51%29.92 "Hg5 mi
10:00 PM86 °FClear.5 mph49%29.89 "Hg5 mi
9:00 PM88 °FClear.8 mph43%29.89 "Hg5 mi
8:00 PM90 °FClear.3 mph46%29.86 "Hg5 mi
7:00 PM90 °FPassing clouds.3 mph46%29.83 "Hg6 mi
6:00 PM93 °FPassing clouds.3 mph41%29.80 "Hg6 mi
5:00 PM97 °FPassing clouds.6 mph34%29.80 "HgN/A
4:00 PM97 °FScattered clouds.7 mph34%29.77 "HgN/A
3:00 PM99 °FScattered clouds.6 mph33%29.80 "HgN/A
2:00 PM97 °FScattered clouds.9 mph32%29.83 "Hg6 mi
1:00 PM99 °FScattered clouds.7 mph33%29.86 "Hg6 mi
12:00 PM97 °FClear.6 mph34%29.92 "Hg5 mi
11:00 AM95 °FClear.3 mph36%29.95 "Hg4 mi
10:00 AM91 °FClear.3 mph44%29.95 "Hg4 mi
9:00 AM86 °FClear.5 mph52%29.92 "Hg4 mi
8:00 AM81 °FFog.6 mph62%29.92 "Hg2 mi
Weather by CustomWeather, © 2015

See weather overviewHow to use our weather pages